Location: Newark
(42.9277°N, 71.8621°W)
Time: 05:44:47
(UTC+00:00)

Courier 1B Rocket - All Passes

Search period start: 06 June 2020 00:00
Search period end: 16 June 2020 00:00
Orbit: 920 x 1202 km, 28.2° (Epoch: 05 June)

Date Brightness Start Highest point End Pass type
(mag) Time Alt. Az. Time Alt. Az. Time Alt. Az.
06 Jun - 09:54:05 10° SSW 09:59:08 19° SSE 10:04:01 10° ESE daylight
06 Jun - 11:46:00 10° SW 11:51:46 25° S 11:57:15 10° SE daylight
06 Jun - 13:39:30 10° WSW 13:44:19 19° SSW 13:48:54 10° SSE daylight
07 Jun - 08:53:53 10° SSW 08:58:15 16° SSE 09:02:32 10° SE daylight
07 Jun - 10:45:02 10° SW 10:50:53 24° S 10:56:28 10° SE daylight
07 Jun - 12:38:04 10° WSW 12:43:31 23° S 12:48:43 10° SE daylight
07 Jun - 14:33:19 10° SW 14:35:51 12° SSW 14:38:21 10° S daylight
08 Jun - 07:54:26 10° S 07:57:24 12° SSE 08:00:21 10° SE visible
08 Jun - 09:44:15 10° SW 09:49:58 23° S 09:55:30 10° ESE daylight
08 Jun - 11:36:48 10° SW 11:42:39 25° S 11:48:15 10° SE daylight
08 Jun - 13:30:55 10° SW 13:35:09 16° SSW 13:39:13 10° SSE daylight
09 Jun - 08:43:43 10° SSW 08:49:03 20° SSE 08:54:16 10° ESE daylight
09 Jun - 10:35:41 10° SW 10:41:45 26° S 10:47:35 10° SE daylight
09 Jun - 12:29:12 10° WSW 12:34:22 20° SSW 12:39:20 10° SSE daylight
10 Jun - 07:43:34 10° SSW 07:48:09 17° SSE 07:52:43 10° ESE visible
10 Jun - 09:34:44 10° SW 09:40:48 25° S 09:46:43 10° ESE daylight
10 Jun - 11:27:45 10° WSW 11:33:31 24° S 11:39:03 10° SE daylight
10 Jun - 13:22:52 10° SW 13:25:56 13° SSW 13:28:56 10° S daylight
11 Jun - 06:44:06 10° S 06:47:17 13° SSE 06:50:29 10° SE visible
11 Jun - 08:33:58 10° SW 08:39:52 23° S 08:45:39 10° ESE visible
11 Jun - 10:26:29 10° WSW 10:32:36 26° S 10:38:31 10° SE daylight
11 Jun - 12:20:35 10° WSW 12:25:10 17° SSW 12:29:37 10° SSE daylight
12 Jun - 07:33:29 10° SSW 07:38:55 21° SSE 07:44:20 10° ESE visible
12 Jun - 09:25:24 10° SW 09:31:38 26° S 09:37:45 10° SE daylight
12 Jun - 11:18:52 10° WSW 11:24:20 21° SSW 11:29:37 10° SSE daylight
13 Jun - 06:33:24 10° SSW 06:38:01 17° SSE 06:42:41 10° ESE visible
13 Jun - 08:24:30 10° SW 08:30:40 26° S 08:36:47 10° ESE visible
13 Jun - 10:17:28 10° WSW 10:23:26 24° S 10:29:15 10° SE daylight
13 Jun - 12:12:26 10° SW 12:15:55 14° SSW 12:19:20 10° S daylight
14 Jun - 05:34:02 10° S 05:37:11 13° SSE 05:40:22 10° SE visible
14 Jun - 07:23:49 10° SW 07:29:43 24° S 07:35:37 10° ESE visible
14 Jun - 09:16:15 10° WSW 09:22:29 26° S 09:28:36 10° SE daylight
14 Jun - 11:10:16 10° WSW 11:15:07 18° SSW 11:19:51 10° SSE daylight
15 Jun - 06:23:25 10° SSW 06:28:47 21° SSE 06:34:13 10° ESE visible
15 Jun - 08:15:14 10° SW 08:21:30 27° S 08:27:45 10° SE visible
15 Jun - 10:08:37 10° WSW 10:14:13 22° SSW 10:19:44 10° SSE daylight
